Find Starlink 32587

NORAD ID: 62180 Int'l Des: 2024-225 Owner: SPXS Country: US Constellation: starlink operational
LEOCIRCULAR

現在のビュー

3D地球を読み込み中...

About Starlink 32587

Starlink 32587 (NORAD 62180) is a starlink constellation satellite (v2 mini) launched Nov 30, 2024 by SPXS of US. It operates in LEO, CIRCULAR orbit with a mass of 730.00 kg.

Starlink 32587について

説明を読み込み中...

次回通過

Passes for default location (London). Set your location on the main map for personalized predictions.

高度履歴

Loading altitude history...

軌道要素

1 62180U 24225T 26171.27469473 .00003003 00000-0 25934-3 0 9993
2 62180 70.0014 265.6191 0003648 268.4642 91.6099 14.98336066 85243
Epoch: Jun 20, 2026 • Age: 7 hours

現在のステータス

高度 579.6 km
速度 7.57 km/s
衛星直下点 42.54°N, 177.48°E
打ち上げ日 Nov 30, 2024
運用期間 1.5 years
タイプ internet

技術仕様

分類 Payload
質量 730.00 kg
乾燥質量 700.00 kg
総質量 730.00 kg
長さ 0.30 m
直径 4.10 m
スパン 29.00 m
形状 Box + pan
製造者 SPXS
バスタイプ Starlink V2M
フェーズステータス In Orbit
所有者/国 SPXS/US

Most Searched